This is the latest recevied weather packets stored in our database for station/object AA4OM-2. If no packets are shown the sender has not sent any weather packets the latest 10 day(s).
| Time | Temp. | Humidity | Pressure | Rain* | Wind** | Luminosity | Snow |
|---|---|---|---|---|---|---|---|
| 1777064151 | 20° C | 91% | 1009.3 hPa | 0 mm | - | 67 W/m² | - |
| 1777063846 | 20° C | 91% | 1009.3 hPa | 0 mm | - | 77 W/m² | - |
| 1777063541 | 20° C | 90% | 1009.4 hPa | 0 mm | - | 90 W/m² | - |
| 1777063237 | 20.56° C | 88% | 1009.2 hPa | 1.27 mm | - | 92 W/m² | - |
| 1777062934 | 20.56° C | 86% | 1009.2 hPa | 1.27 mm | - | 95 W/m² | - |
| 1777062631 | 20.56° C | 87% | 1009.3 hPa | 0 mm | - | 101 W/m² | - |
| 1777062328 | 20.56° C | 86% | 1009.1 hPa | 0 mm | - | 86 W/m² | - |
| 1777062026 | 20.56° C | 82% | 1009.5 hPa | 0 mm | - | 102 W/m² | - |
| 1777061722 | 20.56° C | 80% | 1009.5 hPa | 0 mm | - | 127 W/m² | - |
| 1777061419 | 20.56° C | 80% | 1009.6 hPa | 0 mm | - | 122 W/m² | - |
| 1777061114 | 20.56° C | 79% | 1009.6 hPa | 0 mm | - | 105 W/m² | - |
| 1777060810 | 21.11° C | 81% | 1009.8 hPa | 0 mm | - | 114 W/m² | - |
| 1777060505 | 21.11° C | 80% | 1009.8 hPa | 0 mm | - | 139 W/m² | - |
| 1777060201 | 21.11° C | 78% | 1009.9 hPa | 0 mm | - | 173 W/m² | - |
| 1777059897 | 21.11° C | 78% | 1009.9 hPa | 0 mm | - | 204 W/m² | - |
| 1777059594 | 21.67° C | 78% | 1009.8 hPa | 0 mm | - | 216 W/m² | - |
| 1777059291 | 21.67° C | 78% | 1009.9 hPa | 0 mm | - | 220 W/m² | - |
| 1777058986 | 21.67° C | 79% | 1010.2 hPa | 0 mm | - | 244 W/m² | - |
| 1777058686 | 21.67° C | 77% | 1010.3 hPa | 0 mm | - | 264 W/m² | - |
| 1777058382 | 21.67° C | 76% | 1010.2 hPa | 0 mm | - | 273 W/m² | - |
| 1777058080 | 22.22° C | 77% | 1010.1 hPa | 0 mm | - | 299 W/m² | - |
| 1777057775 | 22.22° C | 80% | 1010.2 hPa | 0 mm | - | 348 W/m² | - |
| 1777057470 | 22.22° C | 78% | 1010.1 hPa | 0 mm | - | 409 W/m² | - |
| 1777057165 | 21.67° C | 80% | 1010.2 hPa | 0 mm | - | 451 W/m² | - |
| 1777056861 | 21.67° C | 80% | 1010.4 hPa | 0 mm | - | 520 W/m² | - |
* Rain latest hour (hover to see other rain measurements)
** Current wind speed in m/s (hover to see current wind gust speed)